Flag for Malaysia Weather past 2 weeks in Kuala Lumpur, Malaysia

Now
82 °F

Broken clouds.


Feels Like: 89 °F
Forecast: 75 / 86 °F
Wind: 9 mph from South

Location: Sultan Abdul Aziz Shah-Subang

Current Time: Aug 2, 2015 at 2:35:28 PM

Latest Report: Aug 2, 2015 at 2:00 PM


Visibility: 4 mi

Pressure: 29.86 "Hg

Humidity: 79%

Dew point: 75 °F

Location of Kuala LumpurLocation

Historic Weather in Kuala Lumpur — Graph

°F

Kuala Lumpur temperature yesterday

Maximum temperature yesterday: 93 °F (at 3:00 PM)
Minimum temperature yesterday: 77 °F (at 4:00 AM)
Average temperature yesterday: 81 °F

Past Weeks' High & Low Weather Summary

 TemperatureHumidityPressure
High95 °F (Jul 18, 2:00 PM)100% (Jul 26, 6:00 AM)29.95 "Hg (Jul 26, 6:00 AM)
Low75 °F (Jul 19, 10:00 AM)52% (Jul 28, 12:00 PM)29.71 "Hg (Jul 18, 4:00 PM)
Average83 °F80%29.86 "Hg
* Reported Jul 18 1:00 PM — Aug 2 1:00 PM, Kuala Lumpur, Weather by CustomWeather, © 2015

Note: Actual official high and low records may vary slightly from our data, if they occured in-between our weather recording intervals... More about our weather records

Advertising

Kuala Lumpur weather history for previous 24 hours

 ConditionsComfort  
Time TempWeatherWind HumidityBarometerVisibility
1:00 PM
Sun, Aug 2
88 °FBroken clouds.6 mph70%29.89 "Hg4 mi
12:00 PM86 °FPartly sunny.2 mph75%29.89 "Hg4 mi
11:00 AM82 °FBroken clouds.2 mph84%29.89 "Hg4 mi
10:00 AM82 °FBroken clouds.2 mph84%29.89 "Hg4 mi
9:00 AM79 °FBroken clouds.5 mph84%29.89 "Hg2 mi
8:00 AM77 °FPartly cloudy.5 mph94%29.86 "Hg2 mi
7:00 AM75 °FPartly cloudy.No wind100%29.86 "Hg1 mi
6:00 AM75 °FPartly cloudy.1 mph94%29.86 "Hg2 mi
5:00 AM75 °FPartly cloudy.No wind94%29.86 "Hg2 mi
4:00 AM77 °FPartly cloudy.6 mph94%29.86 "Hg2 mi
3:00 AM77 °FPartly cloudy.1 mph94%29.89 "Hg2 mi
2:00 AM77 °FPartly cloudy.3 mph94%29.89 "Hg2 mi
1:00 AM77 °FPartly cloudy.3 mph94%29.92 "Hg2 mi
12:00 AM77 °FPartly cloudy.No wind94%29.92 "Hg3 mi
11:00 PM
Sat, Aug 1
77 °FPartly cloudy.2 mph94%29.92 "Hg3 mi
10:00 PM77 °FPassing clouds.1 mph89%29.89 "Hg6 mi
9:00 PM77 °FPartly cloudy.1 mph89%29.86 "Hg4 mi
8:00 PM77 °FLight rain. Broken clouds.2 mph89%29.86 "Hg6 mi
7:00 PM77 °FBroken clouds.3 mph89%29.83 "Hg5 mi
6:00 PM77 °FThunderstorms. More clouds than sun.2 mph94%29.80 "Hg3 mi
5:00 PM77 °FStrong thunderstorms. Broken clouds.7 mph89%29.83 "Hg1 mi
4:00 PM93 °FThunderstorms. Broken clouds.8 mph63%29.80 "Hg6 mi
3:00 PM93 °FBroken clouds.3 mph59%29.83 "HgN/A
2:00 PM90 °FBroken clouds.5 mph67%29.86 "HgN/A
Weather by CustomWeather, © 2015

See weather overviewHow to use our weather pages